Wind_Speed
20 19 20 21 21 22 22 20 21 22 23 24 25 25 26 27 28 28 29 26 25 14 15 13 9 10 5 6 7 18 14 9 9 10 8 7 9 8 11 9 9 12 13 16 17 18 19
22 22 22 21 21 21 21 21 21 21 22 23 25 26 26 28 28 28 32 26 31 26 13 12 12 11 5 6 5 14 10 9 10 10 9 9 7 6 6 7 7 8 15 18 17 19 19
22 22 22 21 21 22 22 22 21 21 23 23 24 25 27 28 30 31 31 39 32 19 17 14 13 12 8 10 4 8 9 9 8 9 8 9 7 6 5 8 5 6 9 17 18 19 21
24 24 24 24 22 24 22 22 21 21 22 22 25 26 27 29 30 33 37 35 18 17 15 12 12 9 5 4 14 10 9 8 7 7 8 9 4 9 10 8 10 13 9 12 10 19 22
26 25 25 25 24 23 23 22 21 21 22 23 25 27 27 27 29 32 36 20 12 17 14 12 8 6 3 7 8 10 11 12 7 5 7 8 5 7 5 4 5 6 8 14 16 18 7
28 27 26 25 26 25 23 22 23 23 23 22 22 26 26 25 26 28 30 22 13 13 11 9 3 5 6 7 11 9 7 6 5 6 2 6 5 6 5 5 7 8 5 10 12 4 10
32 31 30 29 25 24 22 23 25 24 22 22 23 25 27 24 24 24 26 14 3 1 4 6 10 2 9 9 11 8 9 10 7 7 7 12 5 10 11 14 16 15 18 18 17 12 9
38 37 36 32 25 21 20 23 24 23 20 21 22 23 25 24 23 25 12 2 2 8 4 13 10 13 11 6 5 9 11 7 7 8 10 3 10 13 15 11 11 15 19 19 16 15 10
45 46 39 43 11 12 21 23 23 22 21 20 22 23 21 24 24 9 10 9 8 9 3 4 13 12 10 6 4 15 12 6 7 11 8 9 6 3 8 10 12 13 15 17 7 8 8
53 51 46 18 22 20 21 22 21 21 19 21 21 20 18 21 13 22 6 21 10 6 1 7 8 6 9 5 5 12 14 4 5 5 7 9 15 17 7 9 8 12 8 13 15 6 5
43 32 29 30 31 21 18 22 21 22 22 20 18 17 16 12 13 6 14 20 0 4 4 7 9 9 8 7 11 6 8 4 7 5 4 2 7 6 9 13 7 8 13 6 9 7 3
37 26 31 29 20 17 21 21 22 22 21 20 18 16 12 12 9 7 9 10 1 3 2 4 5 6 11 9 7 6 3 1 3 4 6 12 1 2 4 12 12 14 12 9 7 4 3
37 31 26 22 21 23 22 24 24 24 23 21 18 15 12 7 3 8 15 2 2 2 1 6 6 9 11 8 8 7 6 4 3 3 3 2 4 5 4 6 6 6 6 1 3 3 3
30 26 24 24 24 25 26 27 27 26 25 24 23 22 10 11 8 4 4 1 1 5 5 7 8 10 3 10 4 7 2 1 4 3 3 2 1 2 1 2 4 2 4 2 4 3 1
25 26 25 24 25 27 29 28 28 28 29 28 22 8 5 1 9 5 2 1 4 3 5 7 10 5 3 5 1 3 0 3 6 8 2 2 3 4 8 5 2 3 2 4 4 5 2
23 26 24 25 27 29 29 29 30 32 34 24 11 7 8 10 15 7 2 4 4 9 4 2 2 2 5 5 2 3 5 4 2 7 9 3 2 4 4 4 6 4 7 3 2 5 3
22 24 23 24 26 27 30 31 31 33 34 15 8 5 10 17 11 1 2 4 5 11 10 8 7 4 7 6 4 4 5 4 8 4 5 5 3 4 4 4 5 3 4 3 2 2 0
22 22 21 22 27 29 30 32 31 31 28 17 4 5 5 9 0 1 3 4 4 8 7 4 4 9 7 3 4 4 5 7 7 6 3 3 1 0 4 4 2 4 5 5 3 7 4
21 20 21 24 25 29 30 30 29 28 21 7 3 2 4 4 2 2 2 5 3 7 6 6 7 6 3 4 2 4 5 3 7 4 5 6 4 1 2 1 3 4 10 7 1 2 4
20 18 20 24 24 27 30 30 27 26 16 9 2 2 1 2 2 3 4 5 3 4 5 5 2 1 1 5 4 3 3 3 4 4 6 2 5 5 3 2 3 4 9 10 4 5 8
19 19 19 21 23 25 27 28 25 25 17 8 3 2 2 2 5 6 6 3 4 7 4 6 0 6 5 2 5 3 3 4 4 2 1 4 3 4 5 3 3 4 6 10 11 7 6
18 18 19 19 22 25 26 27 23 22 15 7 2 1 2 3 5 3 3 3 4 4 6 5 6 6 12 9 6 4 5 6 5 5 3 4 1 1 3 6 5 7 9 8 8 8 9
16 16 19 19 19 23 26 26 21 18 10 6 4 2 2 3 3 4 3 1 2 3 4 5 8 5 8 6 7 5 5 5 4 6 5 4 1 3 2 4 4 3 6 7 4 8 2
15 15 18 21 21 20 21 24 19 13 7 4 3 3 2 2 2 3 3 3 6 6 4 8 9 5 5 9 9 3 6 7 8 8 6 3 3 2 2 2 3 3 2 3 4 6 7
15 15 16 20 21 22 21 20 16 10 6 1 1 2 2 2 2 2 3 3 4 4 4 5 5 4 6 5 2 2 3 3 5 6 7 6 3 2 2 1 4 4 1 1 1 3 5
14 13 17 21 23 23 22 17 11 5 2 3 1 2 3 2 3 5 3 3 2 1 2 3 1 7 5 2 2 3 4 3 3 2 1 4 3 2 3 1 2 2 3 1 3 1 3
13 12 14 20 23 23 18 12 1 3 7 3 0 1 3 2 3 3 3 4 1 3 1 2 3 5 3 3 2 2 1 1 2 4 4 2 2 2 1 2 1 3 2 2 1 3 3
10 10 14 17 19 21 15 12 9 10 9 6 2 3 2 3 2 2 3 4 4 4 1 2 0 2 2 2 2 1 2 1 2 2 1 2 0 3 0 1 4 2 2 1 3 2 5
7 7 11 13 14 16 9 11 14 10 8 5 3 5 3 2 1 1 1 2 0 2 3 4 1 2 3 1 1 1 2 1 1 2 1 2 2 1 1 2 1 1 3 2 2 3 3
Wind_Direction
337 336 337 337 338 340 337 339 341 340 338 336 336 336 338 334 335 330 328 321 324 252 200 184 190 191 160 215 244 156 154 151 172 183 200 217 233 246 242 249 263 280 265 273 277 274 281
333 331 330 333 330 329 332 330 330 333 335 335 336 334 334 337 329 329 322 314 316 305 198 179 182 178 203 230 80 147 169 180 200 200 211 230 240 290 309 288 280 292 288 286 294 285 280
326 324 325 325 326 325 327 324 327 328 328 328 329 327 329 331 333 328 320 307 300 281 194 173 174 165 230 226 157 161 169 189 197 218 229 241 257 247 288 289 282 320 312 291 269 264 260
320 322 323 324 321 327 323 325 324 324 327 325 325 326 326 329 331 331 324 316 266 202 167 172 174 149 241 221 228 186 191 202 211 235 252 265 215 257 259 269 290 283 288 276 278 246 247
319 319 321 321 319 317 317 319 321 324 325 327 326 325 322 328 332 335 337 329 181 151 149 148 157 176 248 159 191 206 202 220 200 207 233 233 232 249 235 243 271 205 270 253 276 233 227
314 313 311 313 314 314 316 318 320 319 321 324 328 324 322 323 331 335 342 348 125 120 143 150 22 179 218 205 156 160 178 199 173 175 207 241 222 241 229 221 252 271 237 258 279 260 217
308 304 302 301 306 310 324 330 322 320 323 325 327 324 319 324 328 328 333 337 317 62 242 200 172 243 142 90 130 165 161 159 168 190 202 194 207 225 228 225 242 265 273 284 288 292 232
302 297 290 287 291 318 331 331 327 325 319 324 323 325 323 323 325 322 314 258 212 296 234 223 230 213 134 171 152 161 169 183 199 216 210 180 240 243 243 270 275 275 279 281 287 281 243
322 322 306 297 304 5 341 331 327 330 327 323 323 321 319 321 324 358 331 312 280 300 278 220 205 190 172 178 226 169 179 201 209 240 218 239 253 195 241 268 268 267 266 268 257 287 219
323 318 314 51 36 11 335 327 330 329 325 326 324 316 324 328 324 357 346 349 343 222 229 144 180 209 175 208 222 151 189 220 207 245 242 266 253 257 223 256 243 281 290 247 263 235 248
339 50 32 18 2 348 334 334 334 334 332 325 321 319 324 333 305 320 320 326 82 271 168 127 124 149 166 199 133 171 179 224 254 244 269 228 329 6 275 266 279 255 331 235 274 300 314
7 14 360 356 358 349 337 337 337 335 331 329 323 318 315 321 325 326 342 297 134 240 118 121 126 179 158 209 160 136 158 113 319 298 263 266 344 261 266 318 282 302 291 268 277 267 238
11 4 9 12 354 345 350 344 342 339 337 333 323 314 307 263 246 330 344 5 214 285 235 121 152 161 173 172 175 178 173 180 246 250 209 332 283 312 255 265 228 227 309 241 236 202 37
7 11 3 354 355 358 349 346 347 344 340 337 326 317 296 248 258 288 70 292 322 65 84 115 141 163 199 153 210 196 128 204 191 210 284 275 141 294 271 281 2 52 221 301 314 36 26
6 2 357 359 358 355 353 353 351 346 342 335 345 9 52 109 183 139 52 356 353 45 68 139 151 144 167 155 142 100 117 224 195 194 263 326 43 294 233 299 278 251 248 326 291 283 137
6 357 1 1 358 355 354 356 353 350 353 7 39 62 47 102 133 93 37 320 34 27 272 50 136 262 141 157 88 197 172 65 197 202 230 322 86 353 338 321 225 260 324 322 258 339 50
2 358 4 359 354 357 356 356 357 357 1 35 47 70 63 113 117 360 339 39 15 355 14 8 359 88 111 120 173 199 72 64 4 350 233 308 149 251 245 21 0 335 346 299 244 183 185
0 359 360 358 356 356 357 357 358 2 4 32 28 78 187 333 340 48 5 13 17 320 354 344 303 17 47 64 20 61 69 31 341 316 348 59 18 120 67 142 233 275 334 314 58 331 18
356 358 356 355 358 359 357 358 358 4 9 336 55 78 242 319 28 58 41 77 17 349 341 359 45 30 343 25 51 47 73 9 0 32 16 345 8 330 147 186 326 25 354 346 280 346 339
353 356 354 355 356 358 357 357 358 3 12 1 108 78 3 236 258 10 52 32 359 262 293 294 347 146 91 50 29 125 93 53 338 11 298 264 28 48 96 115 277 5 1 6 60 59 55
351 348 355 356 355 354 355 358 358 2 11 358 14 74 334 37 22 30 70 307 43 356 263 287 198 47 13 70 93 54 95 204 149 276 260 49 81 47 90 45 73 34 26 19 48 55 89
346 345 347 355 354 351 350 356 353 357 15 54 45 6 354 33 344 31 350 16 26 18 343 18 58 47 44 44 1 62 338 17 48 10 36 349 104 52 76 43 53 63 23 38 14 56 87
344 342 341 348 352 350 346 348 351 356 21 39 30 331 298 352 340 307 39 181 296 316 80 30 349 25 63 11 18 49 71 60 47 23 14 28 96 21 43 5 354 29 10 26 59 35 6
343 339 340 340 344 346 342 341 344 347 5 15 34 315 306 67 346 40 338 315 36 5 36 39 11 41 357 328 308 82 73 71 41 19 10 354 73 60 277 345 56 200 56 355 21 62 68
340 335 335 338 337 337 335 329 325 323 324 289 335 331 328 47 7 107 216 219 255 93 44 54 32 12 336 306 272 224 192 202 81 38 5 4 331 38 69 319 138 158 129 6 6 76 15
333 335 333 338 338 339 339 325 301 273 281 199 20 324 322 342 56 320 282 2 111 83 104 70 269 308 329 279 314 357 37 316 18 134 68 316 318 68 355 63 20 118 141 314 315 84 9
327 333 339 342 344 352 354 356 153 167 146 117 76 53 314 300 69 0 345 339 32 276 47 40 356 347 358 333 5 355 82 337 327 347 7 1 331 355 333 344 354 82 72 343 101 213 70
322 332 340 349 2 7 24 65 93 118 107 82 57 330 5 330 100 10 8 344 328 300 256 136 234 236 309 327 332 22 340 109 308 145 301 279 296 206 139 275 281 150 292 23 180 56 127
312 331 342 353 14 24 43 85 101 86 51 81 55 21 72 331 356 338 334 179 125 353 320 319 301 5 4 347 267 286 246 181 2 259 279 296 156 245 342 211 244 208 102 121 46 118 109
Height
837 833 829 825 821 817 813 809 805 801 797 794 791 788 784 780 776 772 768 765 762 758 759 761 766 769 772 774 765 762 767 772 774 774 774 776 777 774 774 770 767 767 764 762 760 759 758
836 832 828 824 820 815 812 808 804 800 796 793 788 784 782 778 774 769 765 761 759 757 755 758 763 766 768 772 762 761 765 770 772 773 774 775 774 771 773 771 773 766 765 761 759 757 755
832 827 823 819 815 812 808 805 801 797 793 789 785 782 779 775 771 766 761 754 753 752 753 756 761 761 766 762 761 761 765 768 770 772 771 772 774 776 771 769 764 767 770 761 754 753 750
831 827 823 818 814 809 804 800 796 793 789 785 782 778 775 772 768 762 753 741 742 747 748 754 758 759 761 756 758 761 763 768 769 771 772 773 775 774 773 770 767 767 773 768 741 739 737
829 825 820 815 810 805 801 797 793 789 785 781 777 774 772 768 764 758 749 736 738 744 751 754 759 759 755 754 756 758 761 764 766 770 772 774 774 773 770 776 774 771 769 757 740 727 729
825 820 816 811 806 801 796 793 791 787 784 778 774 771 768 766 763 757 753 744 743 745 751 756 755 762 755 751 753 756 760 763 766 769 774 774 774 773 767 773 768 751 760 752 740 722 728
821 815 809 804 799 795 792 789 787 784 780 778 773 768 765 762 761 757 754 754 748 752 746 744 744 742 744 750 754 756 760 763 764 767 771 768 774 768 763 760 758 754 750 742 727 717 730
813 805 798 792 789 787 786 785 783 780 777 774 772 766 762 759 759 755 754 755 752 754 743 741 741 744 746 749 752 755 760 761 763 765 759 764 761 752 751 750 753 750 743 738 724 721 723
809 801 788 781 776 781 784 781 779 777 775 770 768 765 761 757 754 753 752 752 748 747 744 730 739 742 746 750 746 750 757 756 759 756 751 754 741 743 749 748 750 745 740 729 731 720 713
803 793 783 776 779 781 780 778 776 774 770 767 764 762 759 755 754 753 750 750 747 748 743 741 738 740 743 747 747 747 753 754 752 752 750 750 738 734 746 745 745 735 713 713 723 718 717
798 791 787 783 781 779 778 776 773 770 767 764 762 759 757 757 757 756 755 751 749 749 723 739 739 741 741 744 744 750 751 752 749 748 750 741 738 741 738 731 732 721 722 722 717 720 726
801 795 790 785 781 780 777 773 771 767 763 760 757 755 755 755 756 757 754 752 752 744 722 737 741 742 743 741 740 749 753 756 754 753 748 742 740 745 738 734 730 723 720 717 716 720 710
800 795 791 787 784 780 777 773 769 764 759 756 753 752 753 754 754 755 755 753 747 736 733 737 736 736 735 738 738 743 749 753 751 751 746 745 747 749 745 738 724 726 725 718 716 713 709
803 799 793 789 784 780 776 772 766 761 756 751 747 746 747 750 752 754 757 755 737 729 728 723 728 732 743 732 736 734 741 748 754 755 750 735 735 743 732 728 730 729 731 722 715 704 712
806 800 795 790 785 780 775 770 765 759 752 745 740 741 745 748 752 754 757 748 744 733 730 726 728 733 738 728 731 734 743 750 743 749 742 731 735 735 733 721 723 718 719 708 716 693 707
806 801 796 792 786 781 775 770 764 757 750 743 743 746 751 752 755 758 761 745 743 738 729 725 724 725 726 727 741 744 741 727 738 732 732 726 733 729 722 720 714 717 711 719 718 713 713
807 802 797 792 785 779 775 771 765 758 751 746 747 749 763 760 761 760 754 750 748 739 733 732 724 720 718 728 734 730 727 730 725 724 723 721 728 739 729 725 725 719 719 708 707 707 721
807 803 797 791 786 782 776 772 766 761 753 750 750 758 766 765 765 763 754 756 756 748 736 734 729 722 723 722 726 725 732 734 727 724 724 723 723 732 725 721 718 719 715 711 729 720 716
808 803 799 793 788 782 778 773 768 764 760 755 759 765 765 764 754 756 749 754 755 750 745 737 730 729 725 728 731 726 730 732 729 729 732 729 733 742 732 727 719 720 715 709 703 709 715
808 803 800 796 791 785 780 775 770 767 762 759 761 764 764 761 756 749 749 760 760 751 750 739 732 728 726 729 725 731 732 732 731 731 731 732 736 742 755 744 738 735 724 714 717 737 729
809 805 800 796 793 788 783 778 773 769 765 762 761 769 768 765 763 756 758 762 755 759 745 737 732 729 730 733 732 734 732 732 730 727 728 729 748 753 739 735 733 732 730 724 727 721 741
809 805 801 796 792 790 785 781 776 772 768 767 768 769 768 768 767 760 761 764 759 750 745 741 737 732 735 739 736 736 732 735 738 730 730 729 753 743 739 737 734 738 735 732 732 729 732
808 804 801 797 792 789 786 782 778 775 773 772 774 773 774 774 770 766 765 762 755 749 745 745 742 737 745 746 739 736 735 735 736 738 737 738 745 753 751 745 739 746 747 742 739 740 739
806 805 802 798 793 788 785 783 781 779 778 778 777 776 773 773 770 770 766 762 754 752 748 749 748 743 753 748 742 737 738 738 739 739 737 739 743 753 767 751 771 752 745 745 744 743 743
805 804 800 797 793 788 783 781 780 779 779 779 779 777 776 771 769 769 766 762 755 752 753 754 755 754 752 749 746 745 746 744 744 745 743 740 742 760 769 765 747 750 748 746 747 754 749
803 799 800 796 791 786 781 776 776 776 777 779 780 779 778 777 777 777 765 759 757 753 754 756 757 754 752 750 746 752 763 752 750 747 743 742 741 751 753 760 746 748 747 745 746 760 751
802 800 795 794 790 783 776 772 773 777 778 779 780 780 780 776 780 780 775 774 767 765 763 757 758 757 752 756 755 757 764 755 756 751 752 752 751 756 750 757 746 745 745 745 750 764 749
800 799 797 793 789 785 778 775 776 779 781 781 782 781 782 778 780 781 781 780 774 768 762 761 762 759 758 760 758 757 757 757 758 750 751 754 757 758 752 757 767 744 747 749 754 750 751
798 797 796 793 790 786 783 780 781 782 782 782 783 783 782 782 782 781 781 781 782 783 783 765 763 759 763 766 762 759 761 759 755 758 753 761 754 759 752 753 746 743 747 748 750 750 751